Voltar ao catálogo

STARLINK-35317

AtivoComunicaçõesVLEO
NORAD 66184·PAYLOAD·🇺🇸 United States

Lançado Oct 26, 2025 de Cape Canaveral Space Force Station

Loading…

Próximas Passagens (próximas 24 horas)

TLE

AtualizadoSource: CelesTrak SupGP

Época: Sep 15, 2026, 02:33 UTC

1 66184C 25243H   26258.10673611 -.00015866  00000+0 -46887-3 0  2580
2 66184  53.1580  82.6514 0001204  81.1323 277.1777 15.34392488    16

Acompanhe STARLINK-35317 em tempo real com AllMySat

Download on the App Store